logo tempoitalia

Diretta Meteo Milano-Linate, ItaliaFriday 23 July ore 21:50

Mappa
Sereno 27 °C Sereno 24 Ore: T.min 21 T.max 31
Ponente Nord Km/h 5.5 Punto di rugiada: 21 °C Umidità: 69% Visibilità: 10 Km
Il sole sorge alle: 05:55 Il sole tramonta alle: 21:03
23 July 2021 21:50 tempo osservato: Sereno Sereno 27 69 1013 vento: Nord N 5.5
23 July 2021 21:20 tempo osservato: Sereno Sereno 26 78 1012 vento: Nord N 3.7
23 July 2021 20:50 tempo osservato: Sereno Sereno 28 61 1012 vento: Nord S/SE 7.4
23 July 2021 20:20 tempo osservato: Sereno Sereno 29 58 1012 vento: Nord S/SE 7.4
23 July 2021 19:50 tempo osservato: Sereno Sereno 30 55 1012 vento: Nord S 7.4
23 July 2021 19:20 tempo osservato: Sereno Sereno 31 52 1012 vento: Nord N 5.5
23 July 2021 18:50 tempo osservato: Sereno Sereno 31 52 1012 vento: Nord N 3.7
23 July 2021 18:20 tempo osservato: Sereno Sereno 31 48 1012 vento: Nord N 3.7
23 July 2021 17:50 tempo osservato: Sereno Sereno 30 55 1012 vento: Nord N 5.5
23 July 2021 17:20 tempo osservato: Sereno Sereno 30 51 1013 vento: Nord N 5.5
23 July 2021 16:50 tempo osservato: Sereno Sereno 30 51 1013 vento: Nord S/SE 7.4
23 July 2021 16:20 tempo osservato: Sereno Sereno 30 51 1013 vento: Nord S/SE 7.4
23 July 2021 15:50 tempo osservato: Sereno Sereno 30 48 1013 vento: Nord SE 11.1
23 July 2021 15:20 tempo osservato: Sereno Sereno 30 45 1013 vento: Nord SE 9.3
23 July 2021 14:20 tempo osservato: Sereno Sereno 30 48 1014 vento: Nord S/SE 9.3
23 July 2021 13:50 tempo osservato: Sereno Sereno 29 51 1014 vento: Nord S 11.1
23 July 2021 13:20 tempo osservato: Sereno Sereno 29 51 1015 vento: Nord S 13
23 July 2021 12:50 tempo osservato: Sereno Sereno 29 51 1015 vento: Nord N 11.1
23 July 2021 12:20 tempo osservato: Sereno Sereno 29 48 1015 vento: Nord E/SE 11.1
23 July 2021 11:50 tempo osservato: Sereno Sereno 28 54 1016 vento: Nord E 11.1
23 July 2021 11:20 tempo osservato: Sereno Sereno 27 57 1016 vento: Nord S 7.4
23 July 2021 10:50 tempo osservato: Sereno Sereno 26 61 1016 vento: Nord E/SE 9.3
23 July 2021 10:20 tempo osservato: Sereno Sereno 29 51 1016 vento: Nord E/SE 9.3
23 July 2021 09:50 tempo osservato: Sereno Sereno 25 65 1016 vento: Nord SE 11.1
23 July 2021 09:20 tempo osservato: Sereno Sereno 25 65 1016 vento: Nord E/SE 13
23 July 2021 08:50 tempo osservato: Sereno Sereno 24 69 1016 vento: Nord E/SE 11.1
23 July 2021 08:20 tempo osservato: Sereno Sereno 23 68 1016 vento: Nord E/SE 11.1
23 July 2021 07:50 tempo osservato: Poco Nuvoloso Poco Nuvoloso 23 68 1016 vento: Nord S/SE 7.4
23 July 2021 07:20 tempo osservato: Poco Nuvoloso Poco Nuvoloso 22 73 1016 vento: Nord N 3.7
23 July 2021 06:50 tempo osservato: Nuvoloso Nuvoloso 21 77 1016 vento: Nord N 5.5
23 July 2021 06:20 tempo osservato: Nuvoloso Nuvoloso 21 77 1015 vento: Nord NE 7.4
23 July 2021 05:50 tempo osservato: Nuvoloso Nuvoloso 21 77 1015 vento: Nord N 3.7
23 July 2021 05:20 tempo osservato: Sereno Sereno 21 77 1016 vento: Nord N 5.5
23 July 2021 04:50 tempo osservato: Sereno Sereno 22 73 1016 vento: Nord E/SE 7.4
23 July 2021 04:20 tempo osservato: Sereno Sereno 22 73 1016 vento: Nord E/SE 7.4
23 July 2021 03:50 tempo osservato: Sereno Sereno 22 73 1016 vento: Nord SE 11.1
23 July 2021 03:20 tempo osservato: Nuvoloso Nuvoloso 23 68 1016 vento: Nord E/SE 7.4
23 July 2021 02:50 tempo osservato: Sereno Sereno 23 68 1016 vento: Nord E/SE 13
23 July 2021 02:20 tempo osservato: Sereno Sereno 23 68 1016 vento: Nord E/SE 13
23 July 2021 01:50 tempo osservato: Nuvoloso Nuvoloso 24 69 1016 vento: Nord E 11.1
23 July 2021 01:20 tempo osservato: Nuvoloso Nuvoloso 24 69 1016 vento: Nord E/SE 14.8
23 July 2021 00:50 tempo osservato: Sereno Sereno 25 65 1016 vento: Nord E/SE 20.3
23 July 2021 00:20 tempo osservato: Sereno Sereno 26 57 1016 vento: Nord E/SE 18.5
22 July 2021 23:50 tempo osservato: Nuvoloso Nuvoloso 27 57 1016 vento: Nord E/SE 22.2
22 July 2021 23:20 tempo osservato: Nuvoloso Nuvoloso 28 61 1015 vento: Nord E 9.3
22 July 2021 22:50 tempo osservato: Poco Nuvoloso Poco Nuvoloso 28 61 1015 vento: Nord E 7.4